Change the Weather History Date:

Monday, December 19, 2011

  Actual Average Record
Temperature  
Mean Temperature 78 °F -  
Max Temperature 83 °F 81 °F 87 °F (2001)
Min Temperature 72 °F 72 °F 69 °F (2008)
Cooling Degree Days 12    
Growing Degree Days 28 (Base 50)    
Moisture  
Dew Point 63 °F    
Average Humidity 57    
Maximum Humidity 83    
Minimum Humidity 35    
Precipitation  
Precipitation 0.04 in 0.09 in - ()
Sea Level Pressure  
Sea Level Pressure 30.02 in    
Wind  
Wind Speed 9 mph ()    
Max Wind Speed 15 mph    
Max Gust Speed -    
Visibility 7.3 miles    
Events Rain    
Averages and records for this station are not official NWS values.
T = Trace of Precipitation, MM = Missing Value Source: Averaged Metar Reports

Daily Weather History Graph

Daily Weather History Graph

Search for Another Location

Airport or City:

Trip Planner

Search our weather history database for the weather conditions in past years. The results will help you decide how hot, cold, wet, or windy it might be!

Date:

Astronomy

Dec. 19, 2011 Rise Set
Actual Time 6:37 AM AST 5:40 PM AST
Civil Twilight 6:14 AM AST 6:04 PM AST
Nautical Twilight 5:47 AM AST 6:31 PM AST
Astronomical Twilight 5:20 AM AST 6:58 PM AST
Moon 1:14 AM AST (12/19) 1:10 PM AST (12/19)
Length of Visible Light 11h 50m
Length of Day
11h 03m
Waning Crescent, 32% of the Moon is Illuminated
Dec 19
Waning Crescent
Dec 24
New
Jan 1
First Quarter
Jan 9
Full
Jan 16
Last Quarter

Hourly Weather History & Observations

Time (AST) Temp. Heat Index Dew Point Humidity Pressure Visibility Wind Dir Wind Speed Gust Speed Precip Events Conditions
12:00 AM 77.0 °F - 64.4 °F 65% 30.01 in 6.2 mi ENE 6.9 mph - N/A   Scattered Clouds
1:00 AM 77.0 °F - 64.4 °F 65% 29.98 in 6.2 mi NE 9.2 mph - N/A   Partly Cloudy
2:00 AM 76 °F - 64 °F 58% 29.98 in 19 mi NE 10.4 mph - -   Scattered Clouds
2:00 AM 77.0 °F - 64.4 °F 65% 29.98 in 6.2 mi NE 10.4 mph - N/A   Partly Cloudy
3:00 AM 75.2 °F - 64.4 °F 69% 29.98 in 6.2 mi ENE 5.8 mph - N/A   Scattered Clouds
4:00 AM 77.0 °F - 64.4 °F 65% 29.95 in 6.2 mi NE 6.9 mph - N/A   Scattered Clouds
5:00 AM 76 °F - 65 °F 61% 29.99 in 6 mi NE 8.1 mph - - Rain Light Rain Showers
6:00 AM 73.4 °F - 68.0 °F 83% 29.98 in 6.2 mi NE 4.6 mph - N/A   Scattered Clouds
7:00 AM 73.4 °F - 66.2 °F 78% 30.04 in 6.2 mi NE 4.6 mph - N/A Rain Light Rain Showers
8:00 AM 77 °F - 65 °F 59% 30.04 in 31 mi ENE 9.2 mph - - Rain Light Rain Showers
8:00 AM 77.0 °F - 64.4 °F 65% 30.04 in 6.2 mi ENE 9.2 mph - N/A   Mostly Cloudy
9:00 AM 78.8 °F - 62.6 °F 57% 30.06 in 6.2 mi ENE 12.7 mph - N/A   Scattered Clouds
10:00 AM 82.4 °F 83.4 °F 62.6 °F 51% 30.06 in 6.2 mi ENE 12.7 mph - N/A   Partly Cloudy
11:00 AM 82 °F - 63 °F 43% 30.07 in 44 mi ENE 12.7 mph - -   Partly Cloudy
11:00 AM 80.6 °F 82.3 °F 64.4 °F 58% 30.06 in 6.2 mi ENE 12.7 mph - N/A   Scattered Clouds
12:00 PM 82.4 °F 82.9 °F 60.8 °F 48% 30.04 in 6.2 mi NE 11.5 mph - N/A   Scattered Clouds
1:00 PM 82.4 °F 82.5 °F 59.0 °F 45% 30.01 in 6.2 mi ENE 15.0 mph - N/A   Partly Cloudy
2:00 PM 82 °F - 59 °F 35% 30.01 in 28 mi ENE 13.8 mph - -   Scattered Clouds
2:00 PM 82.4 °F 82.5 °F 59.0 °F 45% 30.01 in 6.2 mi ENE 15.0 mph - N/A   Partly Cloudy
3:00 PM 82.4 °F 83.4 °F 62.6 °F 51% 29.98 in 6.2 mi NE 12.7 mph - N/A   Partly Cloudy
4:00 PM 80.6 °F 81.8 °F 62.6 °F 54% 29.98 in 6.2 mi NE 12.7 mph - N/A   Partly Cloudy
5:00 PM 79 °F - 62 °F 46% 30.00 in 28 mi ENE 12.7 mph - -   Scattered Clouds
5:00 PM 78.8 °F - 62.6 °F 57% 29.98 in 6.2 mi NE 12.7 mph - N/A   Partly Cloudy
7:00 PM 77.0 °F - 60.8 °F 57% 30.04 in 6.2 mi ENE 9.2 mph - N/A   Partly Cloudy
8:00 PM 77 °F - 62 °F 50% 30.05 in 28 mi ENE 9.2 mph - -   Scattered Clouds
9:00 PM 77.0 °F - 60.8 °F 57% 30.06 in 6.2 mi ENE 10.4 mph - N/A   Partly Cloudy
10:00 PM 77.0 °F - 60.8 °F 57% 30.06 in 6.2 mi East 10.4 mph - N/A   Partly Cloudy
11:00 PM 78 °F - 59 °F 42% 30.07 in 19 mi East 11.5 mph - -   Mostly Cloudy
11:00 PM 77.0 °F - 60.8 °F 57% 30.06 in 6.2 mi East 11.5 mph - N/A   Mostly Cloudy